Find Starlink 31053

NORAD ID: 58549 Int'l Des: 2023-192 Owner: SPXS Country: US Constellation: starlink operational
LEOCIRCULAR

Live Position

Loading 3D Globe...

About Starlink 31053

Description loading...

Upcoming Passes

Passes for default location (London). Set your location on the main map for personalized predictions.

Altitude History

Loading altitude history...

Two-Line Element Set

1 58549U 23192U 26126.34766772 -.00000240 00000-0 40268-5 0 9999
2 58549 53.1614 154.8820 0001214 79.9733 280.1406 15.34378689134819
Epoch: May 6, 2026 • Age: 12 hours

Current Status

Altitude 463.1 km
Velocity 7.64 km/s
Sub-Earth Point 21.39°N, 151.71°E
Launch Date Dec 8, 2023
Age 2.4 years
Type internet

Technical Details

Classification Payload
Mass 730.00 kg
Dry Mass 700.00 kg
Total Mass 730.00 kg
Length 0.30 m
Diameter 4.10 m
Span 29.00 m
Shape Box + pan
Manufacturer SPXS
Bus Type Starlink V2M
Phase Status In Orbit
Owner/State SPXS/US

Most Searched